Pagina principale
METAR-TAF:

METAR-TAF

Aeroporti :

New Bedford, Massachusetts, Stati Uniti

latitudine: 41-40-31N, longitudine: 070-57-25W, altezza: 24 m

Osservazione

Il bollettino è stato emesso 16 minuti fa, alle 02:53 UTC
Vento calmo
Temperature 4°C
Umidità 93%
Pressione 1023 hPa
Visibilità: 16.1 km
Poco nuvoloso ad un'altezza di 6000 ft
Cielo coperto ad un'altezza di 9500 ft

METAR: KEWB 230253Z AUTO 00000KT 10SM FEW060 OVC095 04/03 A3020 RMK AO2 SLP227 T00390028 50003

Ora: 23:09 (03:09 UTC)


TAF: mancante

Osservazioni e previsioni meteorologiche di più di 4000 aeroporti (messaggi METAR e TAF).

Le stazioni disponibili sono rappresentate dai dischi gialli e rossi sulla carta.

Puntare il mouse per vedere il nome della stazione.

Clicca sopra per visualizzare le osservazioni e previsioni meteorologiche.

Per cambiare la mappa : fare clic sui pulsanti verdi con una croce nera per ingrandire, il pulsante verde con un trattino per diminuire, o sulla freccia verde per le mappe adiacenti.


METAR-TAF: